sat.trackr.live / text

‹ back to catalog

STARLINK-5602

NORAD 55743 · 2023-028C

PAYLOAD ACTIVE UNKNOWN

§ Identity

Operator
Country
US
Launch date
2023-03-03
Launch site
AFWTR
Launch vehicle
Mass (kg)
RCS (m²)

Purposes: comms

External: N2YO · Heavens-Above · Gunter

§ Orbital elements

Epoch: 2026-05-25T04:20:10.370976Z

Period
96.11 min
Inclination
70.0008°
Eccentricity
0.0003013
Mean motion
14.98323219 rev/d
Perigee alt
570.0 km
Apogee alt
574.2 km
Semi-major
6,950.2 km
B*
8.9223e-5
RAAN
51.7654°
Arg perigee
270.6195°
Mean anomaly
89.4619°
Rev number
17,749

§ Raw data

STARLINK-56021 55743U 23028C   26145.18067559  .00000972  00000+0  89223-4 0  99932 55743  70.0008  51.7654 0003013 270.6195  89.4619 14.98323219177493

JSON: /api/v1/satellites/55743 · /tle

For live sub-satellite position, see the globe view (requires WebGL).

§ Visibility from observer

Set your observer location to see the next 7 days of passes ≥ 10°. The values pass through the URL so the page stays shareable.

No JS? Fill the form by hand. The geolocation button needs JavaScript.